TimeEDT,TemperatureF,Dew PointF,Humidity,Sea Level PressureIn,VisibilityMPH,Wind Direction,Wind SpeedMPH,Gust SpeedMPH,PrecipitationIn,Events,Conditions,WindDirDegrees,DateUTC
12:54 AM,50.0,37.0,61,29.94,10.0,NNW,9.2,-,N/A,,Overcast,340,2013-05-17 04:54:00
1:54 AM,50.0,37.9,63,29.94,10.0,NNW,6.9,-,N/A,,Overcast,330,2013-05-17 05:54:00
2:54 AM,50.0,37.9,63,29.95,10.0,NNW,4.6,-,N/A,,Overcast,330,2013-05-17 06:54:00
3:01 AM,50.0,37.4,62,29.95,10.0,NNW,4.6,-,N/A,,Overcast,330,2013-05-17 07:01:00
3:54 AM,50.0,39.0,66,29.97,10.0,NW,6.9,-,N/A,,Overcast,310,2013-05-17 07:54:00
4:54 AM,48.0,42.1,80,29.98,10.0,Calm,Calm,-,0.00,Rain,Light Rain,0,2013-05-17 08:54:00
5:54 AM,48.9,42.1,77,30.01,10.0,North,4.6,-,0.00,,Mostly Cloudy,350,2013-05-17 09:54:00
6:54 AM,50.0,41.0,71,30.05,10.0,NNW,8.1,-,N/A,,Mostly Cloudy,340,2013-05-17 10:54:00
7:34 AM,51.8,41.0,67,30.06,10.0,NNW,10.4,-,N/A,,Partly Cloudy,340,2013-05-17 11:34:00
7:54 AM,53.6,41.0,62,30.06,10.0,NNW,10.4,-,N/A,,Mostly Cloudy,330,2013-05-17 11:54:00
8:54 AM,54.0,41.0,62,30.10,10.0,NNW,12.7,-,N/A,,Scattered Clouds,340,2013-05-17 12:54:00
9:54 AM,55.9,37.9,51,30.12,10.0,NNW,16.1,-,N/A,,Scattered Clouds,330,2013-05-17 13:54:00
10:54 AM,57.9,37.9,47,30.13,10.0,North,9.2,17.3,N/A,,Partly Cloudy,350,2013-05-17 14:54:00
11:54 AM,60.1,36.0,41,30.13,10.0,NNW,9.2,-,N/A,,Partly Cloudy,340,2013-05-17 15:54:00
12:54 PM,62.1,37.9,41,30.13,10.0,NNW,11.5,18.4,N/A,,Scattered Clouds,330,2013-05-17 16:54:00
1:54 PM,64.9,37.0,36,30.13,10.0,North,12.7,18.4,N/A,,Partly Cloudy,10,2013-05-17 17:54:00
2:54 PM,66.2,37.4,35,30.12,10.0,NW,12.7,19.6,N/A,,Scattered Clouds,320,2013-05-17 18:54:00
3:54 PM,66.9,37.0,33,30.12,10.0,North,10.4,16.1,N/A,,Mostly Cloudy,360,2013-05-17 19:54:00
4:54 PM,66.0,37.9,36,30.13,10.0,North,6.9,-,N/A,,Mostly Cloudy,350,2013-05-17 20:54:00
5:54 PM,64.0,37.9,38,30.13,10.0,NNE,4.6,-,N/A,,Scattered Clouds,20,2013-05-17 21:54:00
6:54 PM,64.0,37.0,37,30.14,10.0,Calm,Calm,-,N/A,,Scattered Clouds,0,2013-05-17 22:54:00
7:54 PM,64.0,37.0,37,30.15,10.0,Calm,Calm,-,N/A,,Partly Cloudy,0,2013-05-17 23:54:00
8:54 PM,57.9,41.0,53,30.17,10.0,NNE,3.5,-,N/A,,Clear,30,2013-05-18 00:54:00
9:54 PM,54.0,42.1,64,30.20,10.0,Calm,Calm,-,N/A,,Clear,0,2013-05-18 01:54:00
10:54 PM,50.0,42.1,74,30.21,10.0,East,4.6,-,N/A,,Clear,90,2013-05-18 02:54:00
11:54 PM,48.0,42.1,80,30.22,10.0,Calm,Calm,-,N/A,,Clear,0,2013-05-18 03:54:00